Location: Ellerstadt
(49.4644°N, 8.2615°E)
Time: 07:39:06
(UTC+00:00)

SPOT 3 Rocket - Pass Details

Date: 15 June 2021
Orbit: 779 x 794 km, 98.7° (Epoch: 03 August)

Event Time Altitude Azimuth Distance (km) Brightness Sun altitude
Exits shadow 20:22:17 - 175° (S) 3,173 6.2 -6.4°
Reaches altitude 10° 20:24:24 10° 179° (S) 2,334 5.6 -6.6°
Maximum altitude 20:29:29 59° 258° (WSW) 906 4.1 -7.1°
Drops below altitude 10° 20:34:38 10° 339° (NNW) 2,362 7.5 -7.7°
Sets 20:37:01 0° 343° (NNW) 3,298 8.3 -7.9°
